• Em Portugal
  • Lista de países
  • Para 7 dias
  • Temperatura da água
  • Mapas de satélite
  • Mapa do tempo
  • Widgets de tempo
  • user-avatar
    Iniciar Sessão

    Previsão horária em Annaba

    Hoje, 24 Outubro, Quarta-feira

    Tempo Temperatura Precipitação Vento Pressão Humidade
    00:00 +19°C° 0.1 mm 5 m/s 763 mmHg 84%
    01:00 +17°C° 0.1 mm 5 m/s 763 mmHg 85%
    02:00 +17°C° 0.2 mm 5 m/s 763 mmHg 85%
    03:00 +17°C° 0.2 mm 5 m/s 763 mmHg 86%
    04:00 +17°C° 0.2 mm 5 m/s 763 mmHg 87%
    05:00 +17°C° 0.1 mm 5 m/s 763 mmHg 87%
    06:00 +17°C° 0.1 mm 5 m/s 763 mmHg 88%
    07:00 +17°C° 0.1 mm 5 m/s 763 mmHg 88%
    08:00 +19°C° 0.1 mm 6 m/s 763 mmHg 83%
    09:00 +20°C° 0.1 mm 6 m/s 763 mmHg 77%
    10:00 +21°C° 0.1 mm 7 m/s 764 mmHg 72%
    11:00 +22°C° 0.1 mm 7 m/s 763 mmHg 70%
    12:00 +22°C° 0.1 mm 7 m/s 763 mmHg 68%
    13:00 +22°C° 0.1 mm 7 m/s 763 mmHg 65%
    14:00 +22°C° 0.1 mm 7 m/s 763 mmHg 67%
    15:00 +22°C° 0.1 mm 8 m/s 762 mmHg 69%
    16:00 +21°C° 0.1 mm 8 m/s 762 mmHg 71%
    17:00 +21°C° 0 mm 7 m/s 762 mmHg 74%
    18:00 +20°C° 0 mm 6 m/s 762 mmHg 77%
    19:00 +20°C° 0 mm 6 m/s 762 mmHg 80%
    20:00 +19°C° 0 mm 5 m/s 763 mmHg 81%
    21:00 +19°C° 0 mm 5 m/s 763 mmHg 83%
    22:00 +17°C° 0 mm 5 m/s 763 mmHg 84%
    23:00 +18°C° 0 mm 4 m/s 763 mmHg 84%

    Amanhã, 25 Outubro, Quinta-feira

    Tempo Temperatura Precipitação Vento Pressão Humidade
    00:00 +18°C° 0 mm 4 m/s 763 mmHg 84%
    01:00 +18°C° 0 mm 4 m/s 763 mmHg 83%
    02:00 +18°C° 0 mm 4 m/s 763 mmHg 83%
    03:00 +18°C° 0 mm 4 m/s 763 mmHg 83%
    04:00 +18°C° 0 mm 4 m/s 763 mmHg 83%
    05:00 +18°C° 0 mm 3 m/s 763 mmHg 82%
    06:00 +18°C° 0 mm 3 m/s 763 mmHg 82%
    07:00 +18°C° 0 mm 3 m/s 763 mmHg 82%
    08:00 +19°C° 0 mm 3 m/s 763 mmHg 77%
    09:00 +20°C° 0 mm 3 m/s 764 mmHg 72%
    10:00 +22°C° 0 mm 3 m/s 764 mmHg 67%
    11:00 +24°C° 0 mm 2 m/s 764 mmHg 64%
    12:00 +25°C° 0 mm 2 m/s 763 mmHg 61%
    13:00 +26°C° 0 mm 2 m/s 763 mmHg 57%
    14:00 +26°C° 0 mm 2 m/s 763 mmHg 57%
    15:00 +26°C° 0 mm 2 m/s 763 mmHg 57%
    16:00 +26°C° 0 mm 2 m/s 762 mmHg 57%
    17:00 +24°C° 0 mm 2 m/s 762 mmHg 64%
    18:00 +23°C° 0 mm 1 m/s 763 mmHg 70%
    19:00 +22°C° 0 mm 1 m/s 763 mmHg 77%
    20:00 +22°C° 0 mm 1 m/s 763 mmHg 78%
    21:00 +21°C° 0 mm 1 m/s 763 mmHg 78%
    22:00 +21°C° 0 mm 1 m/s 763 mmHg 79%
    23:00 +21°C° 0 mm 1 m/s 763 mmHg 77%

    Depois de amanhã, 26 Outubro, Sexta-feira

    Tempo Temperatura Precipitação Vento Pressão Humidade
    00:00 +21°C° 0 mm 1 m/s 762 mmHg 75%
    01:00 +21°C° 0 mm 1 m/s 762 mmHg 73%
    02:00 +20°C° 0 mm 2 m/s 762 mmHg 71%
    03:00 +19°C° 0 mm 2 m/s 762 mmHg 69%
    04:00 +19°C° 0 mm 2 m/s 761 mmHg 67%
    05:00 +19°C° 0 mm 2 m/s 761 mmHg 65%
    06:00 +19°C° 0 mm 2 m/s 761 mmHg 64%
    07:00 +19°C° 0 mm 2 m/s 761 mmHg 62%
    08:00 +21°C° 0 mm 2 m/s 761 mmHg 57%
    09:00 +24°C° 0 mm 2 m/s 761 mmHg 51%
    10:00 +26°C° 0 mm 3 m/s 761 mmHg 45%
    11:00 +27°C° 0 mm 2 m/s 761 mmHg 41%
    12:00 +28°C° 0 mm 2 m/s 760 mmHg 38%
    13:00 +29°C° 0 mm 1 m/s 760 mmHg 34%
    14:00 +29°C° 0 mm 2 m/s 760 mmHg 34%
    15:00 +29°C° 0 mm 2 m/s 759 mmHg 33%
    16:00 +29°C° 0 mm 3 m/s 759 mmHg 33%
    17:00 +27°C° 0 mm 3 m/s 759 mmHg 39%
    18:00 +25°C° 0 mm 2 m/s 759 mmHg 46%
    19:00 +23°C° 0 mm 2 m/s 759 mmHg 52%
    20:00 +23°C° 0 mm 2 m/s 759 mmHg 52%
    21:00 +23°C° 0 mm 2 m/s 759 mmHg 53%
    22:00 +21°C° 0 mm 3 m/s 759 mmHg 53%
    23:00 +21°C° 0 mm 3 m/s 759 mmHg 53%

    27 Outubro, Sábado

    Tempo Temperatura Precipitação Vento Pressão Humidade
    00:00 +21°C° 0 mm 3 m/s 759 mmHg 52%
    01:00 +20°C° 0 mm 3 m/s 759 mmHg 52%
    02:00 +20°C° 0 mm 4 m/s 758 mmHg 53%
    03:00 +19°C° 0 mm 4 m/s 758 mmHg 54%
    04:00 +19°C° 0 mm 4 m/s 757 mmHg 55%
    05:00 +19°C° 0 mm 4 m/s 757 mmHg 56%
    06:00 +19°C° 0 mm 4 m/s 757 mmHg 57%
    07:00 +19°C° 0 mm 5 m/s 757 mmHg 58%
    08:00 +21°C° 0 mm 5 m/s 757 mmHg 51%
    09:00 +23°C° 0 mm 5 m/s 757 mmHg 45%
    10:00 +26°C° 0 mm 5 m/s 757 mmHg 39%
    11:00 +27°C° 0 mm 5 m/s 756 mmHg 37%
    12:00 +28°C° 0 mm 5 m/s 756 mmHg 34%
    13:00 +29°C° 0 mm 5 m/s 755 mmHg 31%
    14:00 +29°C° 0 mm 5 m/s 754 mmHg 32%
    15:00 +28°C° 0 mm 5 m/s 754 mmHg 33%
    16:00 +28°C° 0 mm 4 m/s 753 mmHg 33%
    17:00 +27°C° 0 mm 4 m/s 753 mmHg 37%
    18:00 +26°C° 0 mm 4 m/s 753 mmHg 41%
    19:00 +25°C° 0 mm 4 m/s 753 mmHg 45%
    20:00 +23°C° 0.2 mm 4 m/s 753 mmHg 49%
    21:00 +22°C° 0.2 mm 4 m/s 752 mmHg 53%
    22:00 +22°C° 0.2 mm 4 m/s 752 mmHg 57%
    23:00 +22°C° 0.1 mm 4 m/s 751 mmHg 58%

    28 Outubro, Domingo

    Tempo Temperatura Precipitação Vento Pressão Humidade
    00:00 +22°C° 0.1 mm 5 m/s 751 mmHg 60%
    01:00 +22°C° 0.1 mm 5 m/s 750 mmHg 61%
    02:00 +21°C° 0 mm 5 m/s 749 mmHg 61%
    03:00 +21°C° 0 mm 6 m/s 749 mmHg 61%
    04:00 +21°C° 0 mm 6 m/s 748 mmHg 62%
    05:00 +21°C° 0 mm 6 m/s 748 mmHg 63%
    06:00 +20°C° 0 mm 7 m/s 747 mmHg 64%
    07:00 +20°C° 0 mm 7 m/s 747 mmHg 66%
    08:00 +20°C° 0.3 mm 7 m/s 748 mmHg 66%
    09:00 +20°C° 0.3 mm 8 m/s 748 mmHg 66%
    10:00 +20°C° 0.3 mm 8 m/s 749 mmHg 67%
    11:00 +20°C° 1.1 mm 7 m/s 749 mmHg 71%
    12:00 +19°C° 1.1 mm 6 m/s 748 mmHg 75%
    13:00 +18°C° 1.1 mm 4 m/s 748 mmHg 80%
    14:00 +18°C° 0.3 mm 4 m/s 748 mmHg 75%
    15:00 +19°C° 0.3 mm 3 m/s 748 mmHg 70%
    16:00 +20°C° 0.3 mm 3 m/s 747 mmHg 66%
    17:00 +19°C° 0.7 mm 4 m/s 748 mmHg 69%
    18:00 +17°C° 0.7 mm 5 m/s 748 mmHg 72%
    19:00 +16°C° 0.7 mm 6 m/s 749 mmHg 76%
    20:00 +16°C° 0.4 mm 6 m/s 749 mmHg 75%
    21:00 +15°C° 0.4 mm 6 m/s 750 mmHg 73%
    22:00 +15°C° 0.4 mm 6 m/s 750 mmHg 72%
    23:00 +15°C° 0.3 mm 7 m/s 750 mmHg 72%

    29 Outubro, Segunda-feira

    Tempo Temperatura Precipitação Vento Pressão Humidade
    00:00 +13°C° 0.3 mm 8 m/s 751 mmHg 73%
    01:00 +13°C° 0.3 mm 8 m/s 751 mmHg 73%
    02:00 +12°C° 0 mm 8 m/s 751 mmHg 73%
    03:00 +12°C° 0 mm 7 m/s 751 mmHg 72%
    04:00 +13°C° 0 mm 6 m/s 751 mmHg 72%
    05:00 +11°C° 0 mm 6 m/s 751 mmHg 68%
    06:00 +11°C° 0 mm 6 m/s 751 mmHg 64%
    07:00 +12°C° 0 mm 5 m/s 751 mmHg 60%
    08:00 +13°C° 0 mm 6 m/s 751 mmHg 52%
    09:00 +14°C° 0 mm 7 m/s 752 mmHg 45%
    10:00 +15°C° 0 mm 8 m/s 752 mmHg 37%
    11:00 +16°C° 0 mm 8 m/s 751 mmHg 35%
    12:00 +16°C° 0 mm 9 m/s 751 mmHg 34%
    13:00 +17°C° 0 mm 9 m/s 751 mmHg 32%
    14:00 +17°C° 0 mm 9 m/s 751 mmHg 34%
    15:00 +16°C° 0 mm 9 m/s 751 mmHg 35%
    16:00 +16°C° 0 mm 10 m/s 751 mmHg 37%
    17:00 +15°C° 0.1 mm 9 m/s 751 mmHg 40%
    18:00 +13°C° 0.1 mm 9 m/s 752 mmHg 44%
    19:00 +12°C° 0.1 mm 9 m/s 752 mmHg 48%
    20:00 +12°C° 0.2 mm 9 m/s 753 mmHg 48%
    21:00 +12°C° 0.2 mm 9 m/s 753 mmHg 48%
    22:00 +11°C° 0.2 mm 9 m/s 753 mmHg 48%
    23:00 +11°C° 0.3 mm 9 m/s 753 mmHg 51%

    30 Outubro, Terça-feira

    Tempo Temperatura Precipitação Vento Pressão Humidade
    00:00 +11°C° 0.3 mm 9 m/s 753 mmHg 53%
    01:00 +11°C° 0.3 mm 9 m/s 754 mmHg 55%
    02:00 +11°C° 0.4 mm 9 m/s 754 mmHg 57%
    03:00 +10°C° 0.4 mm 8 m/s 754 mmHg 59%
    04:00 +10°C° 0.4 mm 8 m/s 754 mmHg 61%
    05:00 +10°C° 0.2 mm 7 m/s 755 mmHg 62%
    06:00 +10°C° 0.2 mm 7 m/s 755 mmHg 63%
    07:00 +10°C° 0.2 mm 7 m/s 755 mmHg 64%
    08:00 +11°C° 0.2 mm 7 m/s 756 mmHg 60%
    09:00 +13°C° 0.2 mm 8 m/s 756 mmHg 57%
    10:00 +16°C° 0.2 mm 9 m/s 756 mmHg 53%
    11:00 +17°C° 0.1 mm 9 m/s 756 mmHg 51%
    12:00 +17°C° 0.1 mm 9 m/s 756 mmHg 48%
    13:00 +18°C° 0.1 mm 9 m/s 756 mmHg 46%
    14:00 +18°C° 0.1 mm 8 m/s 756 mmHg 47%
    15:00 +18°C° 0.1 mm 8 m/s 756 mmHg 48%
    16:00 +18°C° 0.1 mm 7 m/s 757 mmHg 49%
    17:00 +17°C° 0.1 mm 6 m/s 757 mmHg 53%
    18:00 +16°C° 0.1 mm 5 m/s 757 mmHg 57%
    19:00 +15°C° 0.1 mm 4 m/s 758 mmHg 61%
    20:00 +15°C° 0 mm 4 m/s 758 mmHg 61%
    21:00 +14°C° 0 mm 3 m/s 758 mmHg 62%
    22:00 +15°C° 0 mm 2 m/s 758 mmHg 62%
    23:00 +14°C° 0 mm 3 m/s 758 mmHg 61%
    Mostrar mais